Total_Precipitation_Accumulation
1.24 1.17 1.84 2.68 2.87 2.05 1.67 1.35 1.02 0.96 0.81 0.68 0.53 0.49 0.61 0.91 1.14 1.39 1.39 1.36 0.82 0.77 0.83 1.09 1.42 1.36 1.17 1.05 1.04 1.01 0.84 0.66 0.59 0.58 0.55 0.48 0.44 0.44 0.44 0.44 0.40 0.40 0.38 0.38 0.45 0.50 0.44 0.45 0.55
0.89 1.44 2.35 3.12 2.57 1.78 1.67 1.32 1.09 0.96 0.73 0.55 0.44 0.43 0.46 0.39 0.32 0.66 1.42 1.54 0.89 0.71 0.76 0.89 1.31 1.31 1.17 1.11 1.02 1.09 0.95 0.72 0.64 0.61 0.55 0.48 0.42 0.46 0.53 0.55 0.45 0.42 0.40 0.37 0.41 0.51 0.45 0.44 0.51
1.23 2.10 2.92 2.91 1.99 1.66 1.62 1.37 1.10 0.76 0.51 0.45 0.45 0.39 0.40 0.49 0.53 0.95 1.41 1.11 0.77 0.67 0.76 1.10 1.36 1.18 1.07 1.05 1.10 1.21 1.08 0.93 0.79 0.67 0.58 0.53 0.49 0.50 0.58 0.54 0.52 0.51 0.46 0.45 0.51 0.57 0.52 0.45 0.43
1.66 2.54 2.90 2.45 1.83 1.45 1.29 1.26 1.03 0.73 0.51 0.33 0.34 0.39 0.38 0.54 0.66 0.95 0.99 0.73 0.62 0.67 0.75 0.98 1.14 1.08 1.04 1.06 1.08 1.12 1.13 1.13 0.94 0.77 0.70 0.68 0.64 0.63 0.66 0.66 0.60 0.59 0.57 0.59 0.59 0.58 0.56 0.51 0.49
2.10 2.65 2.59 2.31 1.87 1.49 1.18 1.05 0.93 0.74 0.56 0.36 0.35 0.50 0.63 0.87 0.89 0.87 0.81 0.63 0.55 0.58 0.65 0.77 0.97 0.93 0.93 0.98 1.05 1.04 1.09 1.17 1.04 0.81 0.79 0.81 0.73 0.73 0.75 0.77 0.67 0.65 0.63 0.64 0.66 0.60 0.58 0.55 0.55
2.45 2.47 2.43 2.30 2.03 1.68 1.35 0.94 0.77 0.67 0.46 0.36 0.37 0.52 0.83 1.04 1.06 1.03 0.88 0.87 0.76 0.67 0.63 0.68 0.84 0.91 0.91 0.98 1.08 0.99 1.01 1.10 1.05 0.93 0.86 0.79 0.78 0.81 0.82 0.78 0.74 0.68 0.68 0.69 0.70 0.69 0.63 0.59 0.59
2.36 2.25 2.18 1.80 1.81 2.01 1.47 0.84 0.77 0.69 0.60 0.48 0.32 0.51 0.79 0.88 0.80 0.85 0.81 0.86 0.99 1.04 0.94 0.77 0.70 0.74 0.81 0.97 1.11 1.08 1.03 1.03 0.99 1.03 0.97 0.93 0.90 0.84 0.78 0.77 0.76 0.75 0.75 0.75 0.73 0.69 0.65 0.63 0.62
1.93 1.89 1.78 1.73 1.81 1.89 1.27 0.71 0.57 0.60 0.56 0.36 0.34 0.52 0.72 0.64 0.55 0.62 0.80 0.99 1.03 1.07 1.04 0.90 0.80 0.78 0.80 0.76 0.93 1.13 1.18 1.12 1.02 1.00 0.99 0.99 0.92 0.83 0.77 0.71 0.72 0.77 0.79 0.83 0.84 0.76 0.74 0.70 0.65
1.64 1.85 1.98 2.08 1.95 1.59 0.99 0.72 0.54 0.43 0.41 0.34 0.30 0.35 0.42 0.39 0.45 0.59 0.70 0.79 0.90 0.89 0.89 0.88 0.89 0.92 0.97 0.97 0.95 1.17 1.26 1.18 0.99 0.89 0.93 0.93 0.79 0.81 0.82 0.71 0.83 0.83 0.88 0.93 0.92 0.87 0.85 0.75 0.66
1.63 1.83 1.87 1.53 1.19 1.03 0.86 0.72 0.64 0.61 0.57 0.41 0.35 0.35 0.33 0.36 0.44 0.53 0.61 0.67 0.71 0.73 0.70 0.68 0.71 0.79 0.91 0.99 1.32 1.53 1.33 1.21 0.95 0.94 0.83 0.89 0.96 1.03 0.86 0.80 0.95 0.98 1.02 1.00 0.99 1.02 0.94 0.77 0.59
1.35 1.57 1.32 1.13 0.91 0.71 0.70 0.71 0.59 0.61 0.58 0.41 0.39 0.40 0.41 0.44 0.47 0.53 0.55 0.54 0.57 0.56 0.51 0.50 0.48 0.50 0.59 0.79 1.14 1.43 1.55 1.52 1.43 1.19 0.96 0.97 0.85 0.74 0.68 0.70 0.80 0.87 0.95 0.91 0.94 0.94 0.80 0.71 0.65
1.34 1.22 0.99 0.96 0.71 0.70 0.67 0.60 0.56 0.50 0.43 0.31 0.39 0.39 0.41 0.44 0.44 0.45 0.49 0.50 0.51 0.52 0.51 0.46 0.45 0.42 0.44 0.53 0.70 0.90 1.04 1.14 1.16 1.01 0.91 0.98 0.87 0.76 0.76 0.76 0.75 0.75 0.83 0.92 0.96 0.91 0.78 0.66 0.60
1.37 1.26 0.91 0.73 0.67 0.62 0.55 0.52 0.50 0.50 0.43 0.31 0.38 0.47 0.52 0.54 0.51 0.48 0.48 0.49 0.51 0.56 0.62 0.58 0.49 0.45 0.44 0.47 0.55 0.63 0.78 0.87 0.90 0.92 0.88 0.91 0.92 0.89 0.86 0.78 0.77 0.71 0.77 0.87 0.94 0.90 0.81 0.75 0.69
1.16 1.14 1.12 0.95 0.77 0.63 0.59 0.50 0.41 0.46 0.45 0.41 0.48 0.56 0.59 0.65 0.59 0.55 0.53 0.54 0.53 0.56 0.62 0.67 0.59 0.55 0.50 0.47 0.51 0.55 0.65 0.73 0.77 0.76 0.76 0.86 0.94 0.94 0.90 0.85 0.86 0.83 0.84 0.96 0.94 0.86 0.89 0.88 0.78
1.06 1.23 1.18 1.01 0.84 0.72 0.68 0.70 0.48 0.39 0.45 0.49 0.57 0.55 0.54 0.60 0.60 0.59 0.57 0.54 0.54 0.56 0.59 0.61 0.63 0.63 0.62 0.60 0.58 0.57 0.64 0.74 0.76 0.73 0.68 0.70 0.78 0.84 0.87 0.87 0.87 0.91 1.00 1.04 1.07 0.90 0.91 0.86 0.77
1.28 1.53 1.54 1.07 0.94 0.82 0.86 0.89 0.55 0.46 0.44 0.43 0.44 0.44 0.46 0.49 0.51 0.53 0.53 0.50 0.49 0.48 0.49 0.54 0.55 0.61 0.68 0.71 0.72 0.73 0.73 0.80 0.77 0.76 0.69 0.64 0.69 0.77 0.90 0.91 0.88 0.91 1.03 1.11 1.15 1.05 1.00 0.92 0.88
1.39 1.39 1.30 1.05 0.86 0.80 0.77 0.69 0.52 0.47 0.45 0.39 0.38 0.35 0.35 0.36 0.38 0.39 0.41 0.43 0.45 0.43 0.43 0.46 0.50 0.52 0.64 0.73 0.76 0.84 0.86 0.87 0.85 0.84 0.74 0.71 0.76 0.84 1.01 1.10 1.11 1.11 1.12 1.11 1.06 1.11 1.09 1.06 1.04
1.12 1.03 0.95 0.85 0.70 0.66 0.63 0.53 0.42 0.39 0.37 0.33 0.31 0.27 0.28 0.29 0.28 0.29 0.31 0.31 0.32 0.34 0.36 0.40 0.45 0.48 0.55 0.70 0.82 0.97 1.09 1.05 1.07 1.01 0.89 0.91 1.05 1.19 1.32 1.32 1.40 1.46 1.34 1.29 1.23 1.23 1.18 1.12 1.14
0.75 0.77 0.80 0.71 0.53 0.52 0.51 0.43 0.39 0.36 0.35 0.35 0.31 0.25 0.23 0.22 0.18 0.18 0.22 0.24 0.24 0.23 0.26 0.32 0.36 0.44 0.53 0.61 0.75 0.96 1.24 1.35 1.44 1.40 1.22 1.16 1.28 1.52 1.72 1.69 1.73 1.76 1.63 1.58 1.64 1.82 1.77 1.50 1.27
0.72 0.83 0.83 0.72 0.47 0.42 0.42 0.35 0.31 0.31 0.34 0.32 0.30 0.26 0.19 0.17 0.12 0.11 0.13 0.15 0.16 0.17 0.18 0.24 0.32 0.42 0.51 0.60 0.77 0.94 1.08 1.08 1.26 1.41 1.39 1.30 1.29 1.44 1.57 1.83 1.92 1.84 1.85 1.97 1.99 2.30 2.43 2.01 1.59
0.70 0.69 0.70 0.69 0.52 0.41 0.38 0.37 0.28 0.24 0.25 0.26 0.26 0.24 0.21 0.17 0.12 0.10 0.10 0.10 0.11 0.12 0.13 0.17 0.24 0.35 0.48 0.64 0.87 1.09 1.27 1.36 1.42 1.35 1.43 1.44 1.37 1.41 1.51 1.66 1.82 1.83 1.89 1.98 2.09 2.41 2.85 2.61 2.08
0.62 0.41 0.38 0.44 0.53 0.53 0.45 0.51 0.31 0.27 0.31 0.30 0.28 0.24 0.22 0.20 0.14 0.11 0.09 0.11 0.10 0.11 0.10 0.14 0.23 0.38 0.59 0.80 1.06 1.31 1.51 1.55 1.44 1.48 1.51 1.39 1.34 1.30 1.37 1.51 1.65 1.77 1.79 1.92 2.02 2.13 2.58 2.89 2.57
0.38 0.31 0.28 0.34 0.42 0.39 0.32 0.40 0.33 0.32 0.42 0.39 0.34 0.30 0.24 0.21 0.18 0.16 0.14 0.16 0.17 0.17 0.18 0.25 0.45 0.70 0.96 1.17 1.43 1.72 1.72 1.61 1.51 1.51 1.48 1.42 1.43 1.40 1.39 1.53 1.60 1.62 1.68 1.78 2.11 2.36 2.60 2.78 2.71
0.27 0.29 0.30 0.33 0.39 0.37 0.26 0.32 0.38 0.35 0.39 0.42 0.40 0.33 0.25 0.21 0.25 0.30 0.34 0.39 0.44 0.47 0.61 0.81 1.08 1.27 1.36 1.49 1.64 1.76 1.73 1.74 1.68 1.50 1.40 1.40 1.44 1.49 1.54 1.59 1.60 1.57 1.60 1.71 1.93 2.21 2.41 2.72 2.89
0.21 0.29 0.46 0.50 0.50 0.38 0.23 0.38 0.46 0.37 0.32 0.32 0.33 0.28 0.22 0.26 0.35 0.48 0.62 0.74 0.85 0.97 1.11 1.25 1.43 1.59 1.54 1.51 1.56 1.59 1.60 1.59 1.57 1.51 1.41 1.36 1.37 1.38 1.42 1.53 1.65 1.72 1.75 1.86 2.03 2.18 2.09 2.30 2.67
0.18 0.27 0.53 0.64 0.51 0.39 0.35 0.55 0.56 0.44 0.33 0.25 0.19 0.19 0.27 0.40 0.53 0.64 0.73 0.84 1.00 1.14 1.20 1.21 1.32 1.43 1.40 1.38 1.35 1.32 1.37 1.40 1.35 1.28 1.26 1.29 1.36 1.34 1.28 1.33 1.44 1.58 1.74 1.78 1.83 1.85 1.82 1.94 2.18
0.15 0.19 0.27 0.43 0.34 0.33 0.44 0.67 0.60 0.39 0.33 0.27 0.23 0.27 0.42 0.60 0.81 0.95 1.05 1.17 1.22 1.25 1.31 1.23 1.23 1.28 1.29 1.23 1.15 1.13 1.18 1.24 1.25 1.19 1.20 1.19 1.18 1.11 1.03 1.04 1.08 1.16 1.24 1.31 1.47 1.56 1.66 1.71 1.83
0.17 0.25 0.33 0.51 0.57 0.58 0.61 0.69 0.60 0.47 0.44 0.47 0.53 0.63 0.69 0.79 1.04 1.34 1.58 1.75 1.58 1.31 1.20 1.16 1.09 1.10 1.18 1.17 1.10 1.06 1.13 1.14 1.12 1.15 1.12 1.11 1.11 1.02 0.96 0.92 0.87 0.84 0.82 0.86 1.04 1.23 1.34 1.45 1.61
0.19 0.31 0.40 0.52 0.63 0.79 0.95 1.02 0.85 0.86 0.88 0.96 1.07 1.11 1.12 1.21 1.19 1.35 1.54 1.71 1.61 1.30 1.07 1.08 1.10 1.06 1.04 1.04 1.06 1.06 1.04 0.93 0.92 0.97 0.97 0.96 0.96 1.01 1.00 0.91 0.84 0.91 0.91 0.86 0.91 0.97 1.03 1.10 1.25
0.30 0.42 0.55 0.75 0.69 0.73 0.93 1.09 0.95 0.94 0.96 1.05 1.23 1.31 1.30 1.21 1.11 1.09 1.14 1.21 1.23 1.08 0.90 0.86 1.00 1.06 1.02 0.99 1.01 1.00 0.91 0.85 0.81 0.79 0.76 0.68 0.66 0.68 0.78 0.86 0.81 0.80 0.82 0.84 0.89 0.91 0.95 0.97 1.05